Location: Carri�res
(48.9069°N, 2.1792°E)
Time: 21:09:27
(UTC+00:00)

Cosmos 1634 Rocket - Pass Details

Date: 17 January 2021
Orbit: 960 x 991 km, 82.9° (Epoch: 01 March)

Event Time Altitude Azimuth Distance (km) Brightness Sun altitude
Rises 16:51:12 0° 354° (N) 3,671 6.8 -4.5°
Reaches altitude 10° 16:53:49 10° 360° (N) 2,724 6.1 -4.9°
Maximum altitude 16:59:50 48° 74° (ENE) 1,260 4.2 -5.8°
Drops below altitude 10° 17:05:50 10° 148° (SSE) 2,727 6.3 -6.7°
Sets 17:08:27 0° 154° (SSE) 3,675 7.0 -7.1°
